www.pogodaiklimat.ru

Погода и климат >> Архив погоды >> Россия >> Якутия >> Сунтар


АРХИВ ПОГОДЫ в Сунтаре

Время (UTC), дата Ветер
(напр.,м/с)
 
Видим.   Явления Облачность Т
(С)
Тd
(С)
f
(%)
Тe
(С)
Тes
(С)
Комфортность P
(гПа)
Po
(гПа)
Тmin
(С)
Tmax
(С)
R
(мм)
R24
(мм)
S
(см)
21 16.09 З 1 50 км {ливн. осадки} 10/0
[Ac trans Ci fib]
+0.4 -0.2 96 -2 -2 1016.0 998.7
00 17.09 З 1 50 км {ливн. осадки} 1/0
[Ac trans]
-1.5 -2.1 96 -4 -3 1017.4 1000.0 -1.5 2
03 17.09 ЮЗ 2 50 км ясно +4.6 +0.1 73 +2 +7 1017.8 1000.8
06 17.09 З 2 50 км 6/6 1000 м
[Cu hum]
+6.4 -3.4 49 +5 +6 1017.8 1000.9
09 17.09 З 3 50 км 6/6 1000 м
[Sc]
+7.7 -4.1 43 +6 +6 1017.5 1000.7
12 17.09 З 2 20 км 5/5 1000 м
[Sc]
+4.8 -3.2 56 +3 +3 1018.1 1001.1 +8.9
15 17.09 З 1 20 км 6/3 1000 м
[Sc Ac trans]
+3.0 -2.4 68 +2 +2 1018.4 1001.3
18 17.09 З 1 20 км 6/0
[Ac trans]
+1.3 -1.9 79 -0 -0 1018.5 1001.3
21 17.09 штиль 0 50 км ясно -2.7 -3.4 95 -4 -4 1018.9 1001.4
00 18.09 ЮЗ 1 50 км ясно -1.2 -2.8 89 -3 -2 1018.7 1001.3 -3.5
03 18.09 ЮЗ 1 50 км 1/0
[Ci fib]
+5.6 -2.2 57 +5 +10 1017.7 1000.8
06 18.09 ЮЗ 1 50 км 4/4 1000 м
[Sc]
+8.3 -6.5 34 +8 +11 1015.7 998.9
09 18.09 Ю 1 50 км 4/0
[Ac trans]
+7.2 -4.1 44 +7 +7 1013.9 997.1
12 18.09 В 1 20 км 10/5 600 м
[Cb cap Ac trans]
+3.7 -4.0 57 +3 +3 1012.7 995.7 +8.9
15 18.09 В 1 20 км 10/5 600 м
[Cb cap Ac trans]
+3.4 -3.7 60 +2 +2 1010.0 993.0
18 18.09 СВ 2 10 км слаб. ливневой снег 10/5 600 м
[Cb cap Ac trans]
+0.3 -0.3 96 -3 -3 1006.8 989.7
21 18.09 С 4 1000 м ливневой снег 10/10 700 м
[Cb cap]
+0.2 -0.1 98 -5 -5 1005.8 988.7
00 19.09 С 3 20 км слаб. ливневой снег 10/10 180 м
[Cb cap]
+0.7 +0.2 96 -4 -4 1007.3 990.2 0.0 11 3
03 19.09 С 3 50 км {ливн. осадки} 4/0
[Ac trans Ci fib]
+2.3 -1.3 77 -2 +1 1009.1 992.1
06 19.09 СЗ 4
{11}
50 км {ливн. осадки} 3/3 1000 м
[Cu hum]
+7.6 -3.9 44 +5 +7 1011.0 994.3
09 19.09 С 4
{10}
50 км 3/3 1000 м
[Sc]
+7.2 -3.7 46 +4 +5 1013.7 996.9
12 19.09 СЗ 2 20 км 3/0
[Ac trans]
+2.8 -3.4 64 0 0 1016.5 999.4 +8.4 0.4
15 19.09 штиль 0 20 км ясно -1.4 -4.7 78 -2 -2 1018.6 1001.2
18 19.09 штиль 0 20 км ясно -3.4 -5.5 85 -4 -4 1019.4 1001.9
21 19.09 Ю 1 50 км 4/0
[Ci fib]
-3.6 -4.7 92 -6 -6 1019.6 1002.1
00 20.09 Ю 1 50 км 3/0
[Ci fib]
-2.5 -4.4 87 -5 -4 1019.4 1001.9 -4.2
03 20.09 Ю 3 50 км 6/0
[Ci fib]
+5.0 -2.9 57 +2 +5 1017.3 1000.3
06 20.09 Ю 4 50 км 10/0
[Ac trans Ci fib]
+7.0 -3.3 48 +4 +6 1015.1 998.2
09 20.09 Ю 2 50 км 10/3 600 м
[Cb cap Ac trans Ci fib]
+7.3 -3.6 46 +6 +6 1012.9 996.1
12 20.09 ЮВ 1 10 км слаб. ливневой дождь 10/8 900 м
[Cb cap Ac trans]
+5.2 +0.6 72 +4 +4 1011.4 994.5 +8.4 0.0
15 20.09 ЮВ 1 10 км слаб. ливневой дождь 10/10 420 м
[Cb cap]
+3.5 +2.5 93 +2 +2 1009.9 992.9
18 20.09 В 1 2000 м дымка {ливн. осадки} 10/10 150 м
[St]
+3.3 +3.1 99 +2 +2 1009.5 992.5
21 20.09 штиль 0 20 км 10/10 630 м
[St]
+3.6 +3.1 97 +2 +2 1009.9 992.9
00 21.09 Ю 1 50 км 10/10 500 м
[St]
+4.0 +3.5 97 +2 +2 1010.2 993.3 +3.3 1
03 21.09 Ю 1 50 км 10/10 270 м
[St]
+7.2 +5.6 90 +6 +6 1008.7 992.1
06 21.09 ЮВ 2 50 км 10/10 300 м
[St]
+10.1 +8.5 90 +9 +9 1005.3 988.8
09 21.09 ЮВ 2 50 км 10/10 600 м
[Cb cap]
+13.2 +10.7 85 +12 +12 1003.3 987.1
12 21.09 ЮВ 2 10 км слаб. ливневой дождь 10/10 870 м
[Cb cap]
+11.0 +10.8 99 +10 +10 1002.8 986.5 +13.9 0.7
15 21.09 ЮЗ 1 20 км {ливн. осадки} 10/4 600 м
[Cb cap Ac trans]
+12.2 +10.9 92 +12 +12 1003.1 986.8
18 21.09 З 2 20 км {ливн. осадки} 10/0
[Ac trans]
+9.3 +6.7 84 +8 +8 1005.2 988.7
21 21.09 З 2 20 км 4/0
[Ac trans]
+7.4 +3.7 77 +5 +5 1007.6 991.0
00 22.09 З 3 50 км 3/0
[Ci fib]
+6.9 +2.3 72 +4 +5 1009.4 992.6 +4.3 1
03 22.09 З 5 50 км 3/3 1000 м
[Cu hum]
+10.8 +2.1 55 +8 +10 1010.0 993.4
06 22.09 З 7
{12}
50 км 9/9 1470 м
[Cb cap]
+12.2 +1.7 49 +10 +10 1010.6 994.1
09 22.09 З 3
{12}
50 км {ливн. осадки} 8/8 840 м
[Cb cap]
+9.0 +4.0 71 +7 +7 1013.1 996.4
12 22.09 ЮЗ 2 20 км {ливн. осадки} 6/0
[Ac trans]
+7.4 +0.9 63 +6 +6 1015.2 998.4 +13.2 1
15 22.09 ЮЗ 1 20 км 10/0
[Ac trans]
+5.3 +0.1 69 +4 +4 1015.7 998.7
18 22.09 ЮЗ 2 20 км 10/0
[Ac trans]
+5.1 -0.2 69 +3 +3 1015.9 998.9
21 22.09 З 3 20 км 10/0
[Ac trans]
+5.5 -0.3 66 +2 +2 1016.6 999.7
00 23.09 З 3 50 км {ливн. осадки} 8/0
[Ac trans Ci fib]
+4.7 -0.3 70 +1 +2 1018.7 1001.7 +4.3 0.0
03 23.09 З 4 50 км 8/4 1000 м
[Cu hum Ac trans]
+6.9 -0.7 58 +4 +5 1020.3 1003.3
06 23.09 СЗ 5
{10}
50 км 5/5 1000 м
[Cu hum]
+9.5 -2.7 42 +7 +8 1021.0 1004.2
09 23.09 СЗ 5
{10}
50 км 4/4 1000 м
[Sc]
+8.7 -3.7 41 +6 +6 1021.8 1004.9
12 23.09 З 1 20 км 4/0
[Ac trans]
+5.6 -4.3 49 +5 +5 1023.2 1006.1 +10.4
15 23.09 штиль 0 20 км 3/0
[Ac trans]
+1.5 -4.7 63 +1 +1 1023.5 1006.2
18 23.09 Ю 1 20 км 4/0
[Ac trans]
-1.7 -4.4 82 -4 -4 1023.4 1005.9

 

Местоположение метеостанции Сунтар (Якутия, Россия): широта 62.17 долгота 117.60 высота над уровнем моря 138 м.

В архиве по умолчанию представлена погода в Сунтаре за последнюю неделю. Архивные данные за месяц целиком и за предыдущие месяцы, начиная с января 2011 года, Вы можете получить, выбрав интересующий диапазон дат из раскрывающегося списка и нажав кнопку "Ввод!".


*Определитесь, кто Вы:
робот инопланетянин человек

Внимание! Время в таблицах - всемирное. Для получения местного времени необходимо прибавить поправку, которая равна 9 ч.

Смотрите также архив погоды в соседних городах и на ближайших метеорологических станциях:

Погода в Крестяхе (Якутия, Россия) (79 км)
Погода в Нюрбе (Якутия, Россия) (129 км)
Погода в Килиере (Якутия, Россия) (163 км)
Погода в Дорожном (Якутия, Россия) (169 км)
Погода в Верхневилюйске (Якутия, Россия) (194 км)
Погода в Мирном (Якутия, Россия) (200 км)
Погода в Ленске (Якутия, Россия) (219 км)
Погода в Чумпуруке (Якутия, Россия) (232 км)
Погода в Олекминске (Якутия, Россия) (247 км)
Погода в Маче (Якутия, Россия) (249 км)

Пояснения к столбцам:

Ветер - указаны скорость ветра в м/с - средняя за 10 мин, порывы в срок и между сроками (в фигурных скобках) и направление, откуда дует ветер: С - северный, СВ - северо-восточный, В - восточный, ЮВ - юго-восточный, Ю - южный, ЮЗ - юго-западный, З - западный, СЗ - северо-западный.
Видимость - горизонтальная дальность видимости в метрах или километрах. При видимости от 1 до 10 км при отсутствии осадков обычно наблюдается дымка, при ухудшении видимости до 1 км и менее - туман. В сухую погоду видимость может ухудшаться дымом, пылью или мглою.
Явления - указаны атмосферные явления, наблюдавшиеся в срок или в последний час перед сроком; фигурными скобками обозначены явления, наблюдавшиеся между сроками (за 1-3 часа до срока); квадратными скобками обозначены град или гололедные отложения с указанием их диаметра в мм.
Облачность - указаны через наклонную черту общая и нижняя облачность в баллах и высота нижней границы облаков в метрах; квадратными скобками обозначены формы облаков: Ci - перистые, Cs - перисто-слоистые, Cc - перисто-кучевые, Ac - высококучевые, As - высокослоистые, Sc - слоисто-кучевые, Ns - слоисто-дождевые, Cu - кучевые, Cb - кучево-дождевые. Подробнее классификацию облаков см. в Атласе облаков (PDF).
T - Температура воздуха - температура, измеренная на высоте 2 м над землей.
Td - Температура точки росы - температура, при понижении до которой содержащийся в воздухе водяной пар достигнет насыщения.
f - Относительная влажность воздуха - влажноcть воздуха, измеренная на высоте 2 м над землей.
Te - Эффективная температура - температура, которую ощущает одетый по сезону человек в тени. Характеристика душности погоды. При расчете учитывается влияние влажности воздуха и скорости ветра на теплоощущения человека.
Tes - Эффективная температура на солнце - температура, которую ощущает человек, с поправкой на солнечный нагрев. Характеристика знойности погоды. Зависит от высоты солнца над горизонтом, облачности и скорости ветра. Ночью, в пасмурную погоду, а также при ветре 12 м/с и более поправка равна нулю.
P - Атмосферное давление - приведенное к уровню моря атмосферное давление.
Po - Атмосферное давление - измеренное на уровне метеостанции атмосферное давление.
Tmin - Минимальная температура - минимум температуры воздуха на высоте 2 м над землей.
Tmax - Максимальная температура - максимум температуры воздуха на высоте 2 м над землей.
R - Количество осадков - Количество выпавших осадков за период времени, мм. При наведении курсора мыши на число - период времени, за который выпало указанное количество осадков.
R24 - Количество осадков - Количество выпавших осадков за 24 часа, мм.
S - Снежный покров - Высота снежного покрова, см. При наведении курсора мыши на число - состояние снежного покрова и степень покрытия местности в баллах.